VY2795 LEAL-LEMH

Flight info

Callsign VY2795
Flight time 0h 43m
Altitude 24000
Route MITOS N851 PTC
Aircraft A320/M-SDE3FGHIRWY/LB1

Departure

Time 2026-05-05 17:49
Airport Alicante-Elche Miguel Hernández Airport (LEAL)

Arrival

Time 2026-05-05 18:33
Airport Menorca Airport (LEMH)
Time Latitude Longitude Altitude Speed Heading
2026-05-05 17:08 38.28609 -0.55034 91 ft 0 kts 280°
2026-05-05 17:38 38.28608 -0.55021 87 ft 4 kts 277°
2026-05-05 17:38 38.28606 -0.54994 87 ft 0 kts 268°
2026-05-05 17:38 38.28606 -0.55002 89 ft 0 kts 268°
2026-05-05 17:41 38.28604 -0.55005 90 ft 2 kts 244°
2026-05-05 17:42 38.28568 -0.54985 91 ft 12 kts 147°
2026-05-05 17:42 38.28472 -0.54978 90 ft 15 kts 185°
2026-05-05 17:42 38.28425 -0.55078 91 ft 16 kts 277°
2026-05-05 17:42 38.28444 -0.55226 90 ft 12 kts 280°
2026-05-05 17:43 38.28457 -0.55321 91 ft 10 kts 280°
2026-05-05 17:43 38.28468 -0.55397 92 ft 8 kts 280°
2026-05-05 17:43 38.28476 -0.55457 93 ft 6 kts 280°
2026-05-05 17:43 38.28483 -0.55509 94 ft 9 kts 280°
2026-05-05 17:44 38.28464 -0.55593 97 ft 11 kts 208°
2026-05-05 17:44 38.28387 -0.55621 101 ft 11 kts 221°
2026-05-05 17:44 38.28380 -0.55711 101 ft 9 kts 279°
2026-05-05 17:44 38.28390 -0.55785 103 ft 8 kts 279°
2026-05-05 17:45 38.28398 -0.55842 102 ft 6 kts 280°
2026-05-05 17:45 38.28404 -0.55886 105 ft 7 kts 280°
2026-05-05 17:45 38.28425 -0.56031 108 ft 21 kts 281°
2026-05-05 17:45 38.28452 -0.56231 109 ft 24 kts 279°
2026-05-05 17:46 38.28481 -0.56448 116 ft 25 kts 280°
2026-05-05 17:46 38.28513 -0.56671 121 ft 26 kts 280°
2026-05-05 17:46 38.28535 -0.56828 127 ft 26 kts 280°
2026-05-05 17:46 38.28577 -0.57124 142 ft 25 kts 279°
2026-05-05 17:47 38.28605 -0.57319 150 ft 16 kts 279°
2026-05-05 17:47 38.28604 -0.57397 152 ft 11 kts 244°
2026-05-05 17:47 38.28545 -0.57430 154 ft 0 kts 190°
2026-05-05 17:48 38.28543 -0.57430 154 ft 3 kts 190°
2026-05-05 17:48 38.28453 -0.57426 154 ft 18 kts 143°
2026-05-05 17:48 38.28431 -0.57346 150 ft 1 kts 99°
2026-05-05 17:49 38.28419 -0.57261 146 ft 34 kts 101°
2026-05-05 17:49 38.28313 -0.56532 114 ft 129 kts 99°
2026-05-05 17:49 38.28127 -0.55150 393 ft 174 kts 101°
2026-05-05 17:49 38.27929 -0.53543 1225 ft 189 kts 104°
2026-05-05 17:50 38.27643 -0.51798 1986 ft 214 kts 105°
2026-05-05 17:50 38.27403 -0.49812 2741 ft 243 kts 89°
2026-05-05 17:50 38.27995 -0.47693 3582 ft 267 kts 60°
2026-05-05 17:50 38.29008 -0.45665 4790 ft 275 kts 55°
2026-05-05 17:51 38.30101 -0.43639 5986 ft 281 kts 53°
2026-05-05 17:51 38.31231 -0.41577 7125 ft 287 kts 53°
2026-05-05 17:51 38.32375 -0.39457 8267 ft 294 kts 55°
2026-05-05 17:51 38.33289 -0.37080 9389 ft 302 kts 66°
2026-05-05 17:52 38.34091 -0.34562 10302 ft 317 kts 67°
2026-05-05 17:52 38.34933 -0.31851 10844 ft 342 kts 67°
2026-05-05 17:52 38.35830 -0.28937 11432 ft 362 kts 67°
2026-05-05 17:52 38.36774 -0.25908 12279 ft 372 kts 66°
2026-05-05 17:53 38.37780 -0.22826 13159 ft 381 kts 66°
2026-05-05 17:53 38.38836 -0.19675 13998 ft 390 kts 65°
2026-05-05 17:53 38.39920 -0.16467 14802 ft 397 kts 65°
2026-05-05 17:53 38.41019 -0.13215 15634 ft 403 kts 66°
2026-05-05 17:54 38.42130 -0.09908 16460 ft 409 kts 66°
2026-05-05 17:54 38.43247 -0.06548 17282 ft 414 kts 66°
2026-05-05 17:54 38.44373 -0.03135 18095 ft 420 kts 66°
2026-05-05 17:54 38.45511 0.00327 18804 ft 426 kts 67°
2026-05-05 17:55 38.46651 0.03835 19518 ft 431 kts 67°
2026-05-05 17:55 38.47795 0.07396 20244 ft 436 kts 67°
2026-05-05 17:55 38.48947 0.10991 20981 ft 440 kts 67°
2026-05-05 17:55 38.50100 0.14594 21700 ft 445 kts 67°
2026-05-05 17:56 38.51275 0.18273 22417 ft 450 kts 67°
2026-05-05 17:56 38.52463 0.21993 23116 ft 455 kts 67°
2026-05-05 17:56 38.53667 0.25756 23659 ft 459 kts 66°
2026-05-05 17:56 38.54874 0.29538 23835 ft 461 kts 67°
2026-05-05 17:57 38.56078 0.33320 23892 ft 456 kts 67°
2026-05-05 17:57 38.57267 0.37068 23896 ft 454 kts 67°
2026-05-05 17:57 38.58454 0.40811 23894 ft 456 kts 67°
2026-05-05 17:57 38.59647 0.44575 23897 ft 457 kts 67°
2026-05-05 17:58 38.60841 0.48346 23898 ft 458 kts 67°
2026-05-05 17:58 38.62035 0.52123 23898 ft 458 kts 67°
2026-05-05 17:58 38.63227 0.55896 23896 ft 458 kts 67°
2026-05-05 17:58 38.64420 0.59674 23899 ft 458 kts 67°
2026-05-05 17:59 38.65594 0.63398 23914 ft 458 kts 67°
2026-05-05 17:59 38.66789 0.67186 23911 ft 457 kts 67°
2026-05-05 17:59 38.67960 0.70904 23914 ft 457 kts 67°
2026-05-05 17:59 38.69145 0.74683 23912 ft 457 kts 67°
2026-05-05 18:00 38.70324 0.78457 23901 ft 457 kts 68°
2026-05-05 18:00 38.71503 0.82229 23902 ft 457 kts 68°
2026-05-05 18:00 38.72687 0.86008 23899 ft 457 kts 68°
2026-05-05 18:00 38.73868 0.89785 23901 ft 457 kts 68°
2026-05-05 18:01 38.75045 0.93560 23900 ft 457 kts 68°
2026-05-05 18:01 38.76222 0.97341 23902 ft 457 kts 68°
2026-05-05 18:01 38.77399 1.01124 23904 ft 457 kts 68°
2026-05-05 18:01 38.78576 1.04904 23906 ft 457 kts 68°
2026-05-05 18:02 38.79754 1.08688 23912 ft 457 kts 68°
2026-05-05 18:02 38.80927 1.12466 23912 ft 457 kts 68°
2026-05-05 18:02 38.82103 1.16264 23907 ft 456 kts 68°
2026-05-05 18:02 38.83273 1.20051 23910 ft 456 kts 68°
2026-05-05 18:03 38.84429 1.23792 23918 ft 456 kts 68°
2026-05-05 18:03 38.85593 1.27577 23919 ft 456 kts 68°
2026-05-05 18:03 38.86752 1.31358 23921 ft 456 kts 68°
2026-05-05 18:03 38.87915 1.35145 23923 ft 456 kts 68°
2026-05-05 18:04 38.89074 1.38929 23939 ft 456 kts 68°
2026-05-05 18:04 38.90233 1.42720 23930 ft 456 kts 68°
2026-05-05 18:04 38.91397 1.46532 23922 ft 456 kts 68°
2026-05-05 18:04 38.92532 1.50280 23917 ft 457 kts 68°
2026-05-05 18:05 38.93665 1.54094 23904 ft 457 kts 69°
2026-05-05 18:05 38.94788 1.57910 23905 ft 457 kts 69°
2026-05-05 18:05 38.95907 1.61727 23905 ft 456 kts 69°
2026-05-05 18:05 38.97027 1.65548 23905 ft 456 kts 69°
2026-05-05 18:06 38.98144 1.69363 23905 ft 456 kts 69°
2026-05-05 18:06 38.98886 1.71891 23905 ft 456 kts 69°
2026-05-05 18:06 39.00383 1.77000 23904 ft 456 kts 69°
2026-05-05 18:06 39.01502 1.80824 23904 ft 456 kts 69°
2026-05-05 18:07 39.02617 1.84643 23899 ft 456 kts 69°
2026-05-05 18:07 39.03729 1.88462 23899 ft 456 kts 69°
2026-05-05 18:07 39.04843 1.92281 23887 ft 456 kts 69°
2026-05-05 18:07 39.05956 1.96101 23889 ft 456 kts 69°
2026-05-05 18:08 39.07064 1.99918 23893 ft 456 kts 70°
2026-05-05 18:08 39.08171 2.03748 23895 ft 456 kts 70°
2026-05-05 18:08 39.09274 2.07556 23897 ft 456 kts 69°
2026-05-05 18:08 39.10387 2.11394 23922 ft 456 kts 70°
2026-05-05 18:09 39.11480 2.15168 23917 ft 456 kts 70°
2026-05-05 18:09 39.12587 2.19005 23911 ft 457 kts 70°
2026-05-05 18:09 39.13694 2.22848 23907 ft 457 kts 70°
2026-05-05 18:09 39.14798 2.26684 23905 ft 457 kts 70°
2026-05-05 18:10 39.15906 2.30530 23890 ft 457 kts 70°
2026-05-05 18:10 39.17009 2.34369 23893 ft 457 kts 70°
2026-05-05 18:10 39.18111 2.38205 23896 ft 457 kts 70°
2026-05-05 18:10 39.19212 2.42048 23896 ft 457 kts 70°
2026-05-05 18:11 39.20313 2.45894 23901 ft 457 kts 70°
2026-05-05 18:11 39.21406 2.49740 23902 ft 457 kts 70°
2026-05-05 18:11 39.22495 2.53588 23903 ft 457 kts 70°
2026-05-05 18:11 39.23585 2.57448 23904 ft 457 kts 70°
2026-05-05 18:12 39.24676 2.61293 23908 ft 457 kts 70°
2026-05-05 18:12 39.25753 2.65093 23909 ft 457 kts 70°
2026-05-05 18:12 39.26843 2.68946 23891 ft 457 kts 70°
2026-05-05 18:12 39.27931 2.72795 23900 ft 456 kts 70°
2026-05-05 18:13 39.29020 2.76642 23908 ft 456 kts 70°
2026-05-05 18:13 39.30113 2.80499 23912 ft 456 kts 70°
2026-05-05 18:13 39.31203 2.84346 23913 ft 456 kts 70°
2026-05-05 18:13 39.32290 2.88199 23946 ft 456 kts 71°
2026-05-05 18:14 39.33370 2.92048 23924 ft 457 kts 71°
2026-05-05 18:14 39.34453 2.95915 23918 ft 457 kts 71°
2026-05-05 18:14 39.35532 2.99772 23912 ft 457 kts 71°
2026-05-05 18:14 39.36610 3.03632 23910 ft 457 kts 71°
2026-05-05 18:15 39.37673 3.07450 23890 ft 457 kts 71°
2026-05-05 18:15 39.38748 3.11314 23897 ft 457 kts 71°
2026-05-05 18:15 39.39824 3.15184 23903 ft 457 kts 71°
2026-05-05 18:15 39.40894 3.19043 23904 ft 457 kts 71°
2026-05-05 18:16 39.41969 3.22914 23906 ft 457 kts 71°
2026-05-05 18:16 39.43233 3.26677 23908 ft 457 kts 62°
2026-05-05 18:16 39.44837 3.30221 23907 ft 456 kts 58°
2026-05-05 18:16 39.46464 3.33744 23908 ft 456 kts 58°
2026-05-05 18:17 39.48090 3.37276 23907 ft 456 kts 58°
2026-05-05 18:17 39.49704 3.40791 23797 ft 450 kts 58°
2026-05-05 18:17 39.51283 3.44238 23572 ft 442 kts 58°
2026-05-05 18:17 39.52835 3.47639 23138 ft 437 kts 58°
2026-05-05 18:18 39.54383 3.51021 22474 ft 435 kts 58°
2026-05-05 18:18 39.55916 3.54367 21857 ft 432 kts 58°
2026-05-05 18:18 39.57452 3.57719 21224 ft 430 kts 58°
2026-05-05 18:18 39.58977 3.61049 20570 ft 429 kts 59°
2026-05-05 18:19 39.60494 3.64374 19920 ft 428 kts 59°
2026-05-05 18:19 39.61985 3.67652 19266 ft 427 kts 59°
2026-05-05 18:19 39.63487 3.70961 18625 ft 426 kts 59°
2026-05-05 18:19 39.64986 3.74271 17948 ft 425 kts 59°
2026-05-05 18:20 39.66470 3.77548 17330 ft 417 kts 59°
2026-05-05 18:20 39.67912 3.80729 16655 ft 399 kts 59°
2026-05-05 18:20 39.69287 3.83767 16079 ft 382 kts 59°
2026-05-05 18:20 39.70607 3.86680 15527 ft 368 kts 59°
2026-05-05 18:21 39.71882 3.89491 14995 ft 355 kts 59°
2026-05-05 18:21 39.73307 3.92052 14467 ft 348 kts 43°
2026-05-05 18:21 39.75232 3.93853 14112 ft 330 kts 22°
2026-05-05 18:21 39.77332 3.94756 13768 ft 310 kts
2026-05-05 18:22 39.79444 3.94828 13277 ft 301 kts 347°
2026-05-05 18:22 39.81518 3.94240 12440 ft 313 kts 341°
2026-05-05 18:22 39.83677 3.93714 11890 ft 319 kts 347°
2026-05-05 18:22 39.85912 3.93474 11386 ft 323 kts 354°
2026-05-05 18:23 39.88168 3.93556 10846 ft 327 kts
2026-05-05 18:23 39.90402 3.93953 10293 ft 330 kts
2026-05-05 18:23 39.92623 3.94644 10036 ft 323 kts 13°
2026-05-05 18:23 39.94714 3.95587 9769 ft 316 kts 19°
2026-05-05 18:24 39.96687 3.96805 9615 ft 313 kts 26°
2026-05-05 18:24 39.98559 3.98274 9133 ft 314 kts 33°
2026-05-05 18:24 40.00302 3.99986 8601 ft 315 kts 39°
2026-05-05 18:24 40.01884 4.01910 8166 ft 306 kts 45°
2026-05-05 18:25 40.03292 4.03972 7369 ft 303 kts 50°
2026-05-05 18:25 40.04125 4.05422 6911 ft 300 kts 54°
2026-05-05 18:25 40.05559 4.08497 6106 ft 294 kts 62°
2026-05-05 18:25 40.06420 4.10906 5585 ft 293 kts 67°
2026-05-05 18:26 40.07108 4.13413 5051 ft 293 kts 72°
2026-05-05 18:26 40.07612 4.15995 4469 ft 291 kts 78°
2026-05-05 18:26 40.07913 4.18549 3902 ft 278 kts 84°
2026-05-05 18:26 40.08030 4.20967 3640 ft 255 kts 89°
2026-05-05 18:27 40.08008 4.23169 3585 ft 229 kts 94°
2026-05-05 18:27 40.07705 4.25051 3537 ft 207 kts 123°
2026-05-05 18:27 40.06699 4.26222 3469 ft 187 kts 164°
2026-05-05 18:27 40.05478 4.26340 3389 ft 172 kts 197°
2026-05-05 18:28 40.03156 4.25602 3249 ft 168 kts 198°
2026-05-05 18:28 40.02058 4.25259 3170 ft 157 kts 197°
2026-05-05 18:28 40.01030 4.24938 3075 ft 147 kts 198°
2026-05-05 18:29 40.00057 4.24688 2926 ft 140 kts 195°
2026-05-05 18:29 39.99102 4.24491 2730 ft 138 kts 194°
2026-05-05 18:29 39.98166 4.24303 2556 ft 133 kts 194°
2026-05-05 18:29 39.97261 4.24121 2368 ft 130 kts 194°
2026-05-05 18:30 39.96390 4.23945 2180 ft 124 kts 193°
2026-05-05 18:30 39.95557 4.23777 2020 ft 119 kts 194°
2026-05-05 18:30 39.94749 4.23612 1941 ft 117 kts 194°
2026-05-05 18:30 39.93946 4.23447 1910 ft 119 kts 194°
2026-05-05 18:31 39.93131 4.23280 1712 ft 119 kts 195°
2026-05-05 18:31 39.92317 4.23113 1476 ft 118 kts 194°
2026-05-05 18:31 39.91503 4.22946 1264 ft 118 kts 193°
2026-05-05 18:31 39.90708 4.22782 1066 ft 115 kts 193°
2026-05-05 18:32 39.89918 4.22620 912 ft 115 kts 192°
2026-05-05 18:32 39.89130 4.22458 739 ft 115 kts 190°
2026-05-05 18:32 39.88331 4.22308 583 ft 113 kts 191°
2026-05-05 18:32 39.87555 4.22135 423 ft 114 kts 192°
2026-05-05 18:33 39.86777 4.21980 312 ft 112 kts 191°
2026-05-05 18:33 39.86132 4.21838 300 ft 69 kts 189°
2026-05-05 18:33 39.85823 4.21775 298 ft 20 kts 188°
2026-05-05 18:33 39.85703 4.21756 297 ft 22 kts 183°
2026-05-05 18:34 39.85546 4.21780 296 ft 24 kts 166°
2026-05-05 18:34 39.85433 4.21832 292 ft 12 kts 160°
2026-05-05 18:34 39.85419 4.21920 294 ft 12 kts 43°
2026-05-05 18:34 39.85493 4.21943 292 ft 11 kts
2026-05-05 18:35 39.85565 4.21957 296 ft 10 kts
2026-05-05 18:35 39.85631 4.21971 295 ft 9 kts
2026-05-05 18:35 39.85685 4.21982 298 ft 7 kts
2026-05-05 18:35 39.85795 4.22007 299 ft 22 kts
2026-05-05 18:36 39.85950 4.22043 296 ft 23 kts
2026-05-05 18:36 39.86106 4.22074 295 ft 23 kts
2026-05-05 18:36 39.86180 4.22107 295 ft 13 kts 61°
2026-05-05 18:36 39.86186 4.22225 295 ft 13 kts 81°
2026-05-05 18:37 39.86258 4.22274 295 ft 12 kts
2026-05-05 18:37 39.86345 4.22293 296 ft 13 kts
2026-05-05 18:37 39.86429 4.22312 298 ft 5 kts 26°
2026-05-05 18:37 39.86428 4.22340 297 ft 4 kts 94°
2026-05-05 18:38 39.86424 4.22381 299 ft 5 kts 98°
2026-05-05 18:38 39.86422 4.22394 297 ft 1 kts 98°
2026-05-05 18:38 39.86422 4.22396 297 ft 0 kts 98°